Tacoma Narrows, WA
on Monday, November 26, 2012

Monday
Previous Day Next Day
Daily Summary
 ActualAverageRecord
Temperature
Mean Temperature °F °F  
Max Temperature 46°F 46°F 51°F (1997)
Min Temperature 36°F 38°F 33°F (2006)
Degree Days
Heating Degree Days 24    
Moisture
Dew Point 35°F   
Average Humidity 78    
Maximum Humidity 93    
Minimum Humidity 59    
Precipitation
Precipitation 0.00 in in in ()
Wind
Wind Speed 10 mph   
Max Wind Speed 17 mph   
Max Gust Speed 22 mph   
Visibility 10 miles   
Events     
Averages and records for this station are not official NWS values.
Key: T is trace of precipitation, MM is missing value
Source: NWS Daily Summary
Seasonal Weather Averages
Time(PST)TemperatureDew PointHumidity Pressure Visibility Wind DirectionWind SpeedGust SpeedPrecipitationEvents Conditions
12:53 AM 39.9°F 37.0°F 89% 30.22 in 10.0 miles North 13.8 mph 20.7 mph N/A   Partly Cloudy
1:10 AM 39.2°F 37.4°F 93% 30.20 in 10.0 miles North 17.3 mph 21.9 mph N/A   Mostly Cloudy
1:53 AM 41.0°F 37.0°F 86% 30.20 in 10.0 miles North 11.5 mph - N/A   Scattered Clouds
2:53 AM 41.0°F 35.1°F 79% 30.17 in 10.0 miles North 11.5 mph 19.6 mph N/A   Clear
3:53 AM 39.0°F 36.0°F 89% 30.16 in 10.0 miles North 11.5 mph - N/A   Partly Cloudy
4:53 AM 39.0°F 35.1°F 86% 30.16 in 10.0 miles North 16.1 mph - N/A   Clear
5:53 AM 39.0°F 34.0°F 82% 30.16 in 10.0 miles North 13.8 mph - N/A   Clear
6:53 AM 39.0°F 35.1°F 86% 30.14 in 10.0 miles North 13.8 mph - N/A   Clear
7:53 AM 39.9°F 35.1°F 83% 30.14 in 10.0 miles North 9.2 mph - N/A   Clear
8:53 AM 39.9°F 36.0°F 86% 30.12 in 10.0 miles NNE 8.1 mph - N/A   Clear
9:53 AM 42.1°F 36.0°F 79% 30.12 in 10.0 miles North 6.9 mph - N/A   Clear
10:53 AM 44.1°F 34.0°F 68% 30.13 in 10.0 miles North 5.8 mph - N/A   Clear
11:53 AM 45.0°F 33.1°F 63% 30.10 in 10.0 miles North 6.9 mph - N/A   Clear
12:53 PM 46.0°F 33.1°F 61% 30.08 in 10.0 miles North 8.1 mph - N/A   Clear
1:53 PM 46.9°F 34.0°F 61% 30.07 in 10.0 miles North 5.8 mph - N/A   Clear
2:53 PM 46.9°F 33.1°F 59% 30.06 in 10.0 miles North 6.9 mph - N/A   Clear
3:53 PM 44.1°F 34.0°F 68% 30.06 in 10.0 miles North 5.8 mph - N/A   Clear
4:53 PM 44.1°F 35.1°F 71% 30.05 in 10.0 miles North 5.8 mph - N/A   Clear
5:53 PM 39.9°F 35.1°F 83% 30.06 in 10.0 miles North 6.9 mph - N/A   Clear
6:53 PM 41.0°F 34.0°F 76% 30.05 in 10.0 miles North 6.9 mph - N/A   Clear
7:53 PM 39.9°F 34.0°F 79% 30.06 in 10.0 miles North 5.8 mph - N/A   Clear
8:53 PM 37.9°F 33.1°F 83% 30.06 in 10.0 miles NNW 5.8 mph - N/A   Clear
9:53 PM 39.9°F 34.0°F 79% 30.07 in 10.0 miles North 6.9 mph - N/A   Clear
10:53 PM 39.2°F 33.8°F 81% 30.06 in 10.0 miles Calm Calm - N/A   Clear
11:53 PM 36.0°F 33.1°F 89% 30.09 in 10.0 miles Calm Calm - N/A   Clear
Moon Phase
Nov. 26 Nov. 28 Dec. 06 Dec. 13 Dec. 20
Sunrise:07:30 AM (PST) Moon Rise:03:23 PM (PST)11/26
Sunset:04:24 PM (PST) Moon Set:05:41 AM (PST)11/26

Copyright © 2014 The Weather Underground, Inc.